User: anonymous   Login
Location: Elk Forest
(39.5314°N, 75.8738°W)
Time: 11:52:05
(UTC-05:00)
Language:

Resurs 01 Rocket - Orbit

View from above orbital plane
View from above orbital plane
View from above satellite
View from above satellite

Ground track
Ground track

The orbit data is extracted from the following two-line orbital elements,

1 23343U 94074B   17056.19564687  .00000025  00000-0  11131-4 0  9992
2 23343  98.1676  92.0802 0008176  75.5424 326.3589 14.76689111200309
Epoch (UTC): 25 February 2017 04:41:43
Eccentricity: 0.0008176
inclination: 98.1676°
perigee height: 634 km
apogee height: 645 km
right ascension of ascending node: 92.0802°
argument of perigee: 75.5424°
revolutions per day: 14.76689111
mean anomaly at epoch: 326.3589°
orbit number at epoch: 20030

The dashed part of the orbit path shows where the satellite is in the earth's shadow,  

DLR